sat.trackr.live / text

‹ back to catalog

STARLINK-4406

NORAD 53667 · 2022-105V

PAYLOAD ACTIVE UNKNOWN

§ Identity

Operator
Country
US
Launch date
2022-08-31
Launch site
AFWTR
Launch vehicle
Mass (kg)
RCS (m²)

Purposes: comms

External: N2YO · Heavens-Above · Gunter

§ Orbital elements

Epoch: 2026-09-20T22:00:03.000096Z

Period
91.91 min
Inclination
97.5981°
Eccentricity
0.0001506
Mean motion
15.66689013 rev/d
Perigee alt
367.4 km
Apogee alt
369.4 km
Semi-major
6,746.5 km
B*
8.7541e-4
RAAN
152.2279°
Arg perigee
95.6105°
Mean anomaly
251.0491°
Rev number
587

§ Raw data

STARLINK-44061 53667U 22105V   26263.91670139  .00092552  00000+0  87541-3 0  99922 53667  97.5981 152.2279 0001506  95.6105 251.0491 15.66689013  5871

JSON: /api/v1/satellites/53667 · /tle

For live sub-satellite position, see the globe view (requires WebGL).

§ Visibility from observer

Set your observer location to see the next 7 days of passes ≥ 10°. The values pass through the URL so the page stays shareable.

No JS? Fill the form by hand. The geolocation button needs JavaScript.